Regional Weather Roundup
Issued by NWS

Home | Current Version | Previous Version | Graphics & Text | Print | Product List | Glossary On
Versions: 1 2 3 4 5 6 7 8 9 10 11 12 13 14 15 16 17 18 19 20 21 22 23 24 25 26 27 28 29 30 31 32 33 34 35 36 37 38 39 40 41 42 43 44 45 46 47 48 49 50
000
ASUS43 KLMK 010302
RWRKY
KENTUCKY REGIONAL WEATHER ROUNDUP
NATIONAL WEATHER SERVICE LOUISVILLE KY
1100 PM EDT SAT APR 30 2016

NOTE "FAIR" INDICATES FEW OR NO CLOUDS BELOW 12,000 FEET
WITH NO SIGNIFICANT WEATHER AND/OR OBSTRUCTIONS TO VISIBILITY.

KYZ001>023-026-027-061>063-070>075-010400-
WESTERN AND SOUTH CENTRAL KENTUCKY

CITY           SKY/WX    TMP DP  RH WIND       PRES   REMARKS
PADUCAH        CLEAR     63  60  90 S6        29.84R
HENDERSON      CLOUDY    66  61  82 S6        29.85R
OWENSBORO      CLOUDY    67  66  96 SE5       29.87R
HOPKINSVILLE   CLOUDY    66  66 100 SE2       29.87F
BOWLING GREEN  LGT RAIN  67  65  93 E3        29.91R FOG
GLASGOW        NOT AVBL
$$

KYZ024-025-028>034-038-045-046-053-010400-
NORTH CENTRAL KENTUCKY

CITY           SKY/WX    TMP DP  RH WIND       PRES   REMARKS
LOUISVILLE/SDF LGT RAIN  66  63  90 SE8       29.89R
LOUISVILLE/LOU LGT RAIN  65  62  90 S5        29.90R
FORT KNOX      LGT RAIN  64  63  96 E7        29.88F
$$

KYZ035>037-039>044-047>052-055>060-089>105-010400-
NORTHEAST KENTUCKY

CITY           SKY/WX    TMP DP  RH WIND       PRES   REMARKS
LEXINGTON      LGT RAIN  62  60  93 S7        29.95R
COVINGTON      LGT RAIN  61  60  97 SE9       29.90F
FRANKFORT      LGT RAIN  63  60  90 SE7       29.91S
$$

KYZ054-064>069-076>088-106>120-010400-
SOUTHEAST KENTUCKY

CITY           SKY/WX    TMP DP  RH WIND       PRES   REMARKS
JACKSON        HVY RAIN  61  59  93 VRB3      30.02S FOG
LONDON         LGT RAIN  62  61  96 CALM      30.00R
SOMERSET       NOT AVBL
MIDDLESBORO    CLOUDY    62  62 100 CALM      30.00F
MONTICELLO     CLOUDY    65  64  97 SE5       29.96F
$$





USA.gov is the U.S. government's official web portal to all federal, state and local government web resources and services.